Miscellaneous Local Product
Issued by NWS Hastings, NE

Home | Current Version | Previous Version | Text Only | Print | Product List | Glossary Off
Versions: 1 2 3 4 5 6 7 8 9 10 11 12 13 14 15 16 17 18 19 20 21 22 23 24 25 26 27 28 29 30 31 32 33 34 35 36 37 38 39 40 41 42 43 44 45 46 47 48 49 50

000
AXUS43 KGID 280402
MISGRI

GID CWA HOURLY WEATHER ROUNDUP
NATIONAL WEATHER SERVICE HASTINGS NE
1000 PM CST THU NOV 27 2014

NOTE: "FAIR" INDICATES FEW OR NO CLOUDS BELOW 12,000 FEET WITH NO
SIGNIFICANT WEATHER AND/OR OBSTRUCTIONS TO VISIBILITY.

...SOUTH CENTRAL NEBRASKA...

CITY           SKY/WX    TMP DP  RH WIND       PRES   REMARKS
GRAND ISLAND   CLEAR     30  17  58 SE10      30.05F WCI  21
HASTINGS       CLEAR     32  18  56 S14       30.02F WCI  22
KEARNEY        PTCLDY    28  19  69 SE8       30.01F WCI  20
ORD            CLEAR     27  17  66 SE7       30.01F WCI  19
YORK           CLEAR     28  19  69 SE9       30.10F WCI  20
AURORA         CLEAR     29  18  63 SE9       30.07F WCI  20
LEXINGTON      PTCLDY    34  22  61 SE6       29.99F WCI  29
HOLDREGE       CLEAR     34  21  58 S14       30.00F WCI  25
HEBRON         CLEAR     36  15  43 S13G20    30.11F WCI  27

...NEBRASKA PANHANDLE...

CITY           SKY/WX    TMP DP  RH WIND       PRES   REMARKS
CHADRON        PTCLDY   N/A N/A N/A W8        29.93F
ALLIANCE       CLEAR     32  26  78 W12       29.96F WCI  23
SCOTTSBLUFF    PTCLDY    33  27  78 NE3       29.99S
SIDNEY         CLEAR     35  26  69 W8        30.03S WCI  29

...WESTERN AND NORTH CENTRAL NEBRASKA...

CITY           SKY/WX    TMP DP  RH WIND       PRES   REMARKS
VALENTINE      CLEAR     36  28  73 SW8       29.90S WCI  30
AINSWORTH      CLEAR     34  22  61 S14G23    29.92S WCI  25
ONEILL         CLEAR     30  20  65 S14       29.98F WCI  20
BROKEN BOW     PTCLDY    26  17  68 SE3       29.98F
IMPERIAL       CLEAR     43  28  55 W10       30.00S
NORTH PLATTE   PTCLDY    26  19  74 CALM      29.98F
MCCOOK         CLEAR     38  25  59 W8        29.98S WCI  32

...EASTERN NEBRASKA...

CITY           SKY/WX    TMP DP  RH WIND       PRES   REMARKS
NORFOLK        CLEAR     21  14  74 SE13      30.07F WCI   9
SO SIOUX CITY  CLOUDY    20  11  68 SE14      30.16F WCI   7
TEKAMAH        PTCLDY    20  13  74 SE13      30.18F WCI   7
COLUMBUS       CLEAR     25  12  58 SE6       30.11F WCI  18
ALBION         PTCLDY    24  17  75 SE8       30.06F WCI  15
OMAHA EPPLEY   PTCLDY    24  16  71 SE15      30.19F WCI  11
OFFUTT AFB     PTCLDY    23  16  73 SE7       30.19F WCI  15
MILLARD        CLEAR     24  16  71 SE9       30.18F WCI  15
LINCOLN        CLEAR     27  18  69 S13       30.15F WCI  16
NEBRASKA CITY  CLEAR     25  16  68 SE10      30.20F WCI  15
BEATRICE       CLEAR     31  19  62 S12       30.15F WCI  22
FALLS CITY     CLEAR     26  20  77 SE13      30.22F WCI  15

...NORTHERN KANSAS...

CITY           SKY/WX    TMP DP  RH WIND       PRES   REMARKS
GOODLAND       PTCLDY    47  27  45 W13       30.05S
HILL CITY      CLEAR     42  25  50 SW7       30.03F
NORTON         CLEAR     36  19  51 SW3       29.99F
PHILLIPSBURG   CLEAR     30  21  69 E8        30.04F WCI  23
SMITH CENTER   CLEAR     28  18  64 E12       30.06F WCI  18
BELOIT         CLEAR     36  19  51 SE12G17   30.08F WCI  27
HAYS           CLEAR     36  18  48 S10       30.06F WCI  28
RUSSELL        CLEAR     40  23  50 S20       30.04F WCI  30
CONCORDIA      CLEAR     36  18  48 S16       30.11F WCI  26
SALINA         CLEAR     37  19  48 SE12      30.13F WCI  29
TOPEKA         CLEAR     34  22  61 SE6       30.27F WCI  29



USA.gov is the U.S. government's official web portal to all federal, state and local government web resources and services.